[[{"header":{"parameterUnit":"m.s-1","parameterCategory":1,"la1":30.2991,"la2":30.254,"lo1":-89.0895,"lo2":-89.0444,"dy":0.0017,"dx":0.0017,"nx":28,"ny":28,"refTime":"2024-08-29T21:00:00:Z","depth":0,"parameterNumber":2,"parameterNumberName":"U-component_of_WINDS"},"data":[0,0,0,0,0,0,0,0,0,0,0,0,0,0,0,0,0,0,0,0,0,0,0,0,0,0,0,0,0,0,0,0,0,0,0,0,0,0,0,0,0,0,0,0,0,0,0,0,0,0,0,0,0,0,0,0,0,0,-5.8679,-5.8679,0,-5.8676,-5.8676,-5.8676,-5.8588,-5.8586,-5.8584,-5.8582,-5.8577,-5.8579,-5.8581,0,0,0,0,0,0,0,0,0,0,0,0,0,-5.8612,-5.8614,-5.8679,-5.8679,-5.8679,-5.8676,-5.8676,-5.8676,-5.8589,-5.8586,-5.8583,-5.8581,-5.8576,-5.8579,-5.8581,0,0,0,0,0,0,0,0,0,0,0,0,0,-5.8628,-5.8614,-5.8679,-5.8636,-5.8632,-5.8676,-5.8676,-5.8676,-5.8589,-5.8586,-5.8583,-5.858,-5.8575,-5.8578,-5.8581,-5.8666,0,0,-5.859,-5.8591,0,0,0,0,0,0,0,0,-5.8627,-5.8631,-5.8642,-5.8639,-5.8634,-5.8629,-5.865,-5.8672,-5.859,-5.8605,-5.8582,-5.8578,-5.8597,-5.8598,-5.8604,-5.8666,-5.8666,-5.859,-5.8592,-5.8593,-5.8594,0,0,0,0,0,0,0,-5.8626,-5.863,-5.8678,-5.8642,-5.8638,-5.8616,-5.8615,-5.8654,-5.862,-5.8604,-5.8597,-5.8598,-5.8594,-5.8602,-5.8604,-5.8666,-5.859,-5.8593,-5.8595,-5.8596,-5.8798,-5.8801,0,0,0,0,0,0,-5.8631,-5.863,-5.8678,-5.8678,-5.8623,-5.862,-5.8619,-5.8634,-5.8619,-5.8614,-5.8601,-5.8594,-5.8598,-5.86,-5.8603,-5.87,-5.8593,-5.8596,-5.8598,-5.8794,-5.8799,-5.8803,0,0,0,0,0,0,-5.863,-5.8636,-5.8678,-5.8652,-5.8656,-5.8625,-5.8643,-5.8636,-5.8643,-5.8617,-5.8611,-5.8615,-5.8596,-5.8599,-5.8651,-5.8699,-5.8597,-5.86,-5.879,-5.8796,-5.8801,-5.8896,0,0,0,0,0,0,-5.8629,-5.8636,-5.8668,-5.8654,-5.8658,-5.8726,-5.8646,-5.8638,-5.8649,-5.864,-5.8629,-5.8624,-5.8594,-5.8648,-5.8654,-5.8701,-5.8602,-5.8785,-5.8793,-5.8799,-5.8888,-5.8904,-5.8918,0,0,0,0,0,-5.8626,-5.8694,-5.867,-5.8676,-5.8696,-5.8729,-5.8731,-5.8695,-5.8653,-5.8684,-5.8668,-5.8624,-5.8694,-5.8654,-5.8661,-5.8709,-5.8782,-5.8791,-5.8798,-5.8882,-5.8901,-5.8917,0,0,0,0,0,0,-5.8713,-5.8691,-5.8664,-5.8729,-5.8732,-5.8714,-5.8752,-5.8717,-5.8731,-5.8721,-5.8677,-5.8675,-5.8734,-5.8728,-5.8683,-5.8791,-5.8731,-5.8741,-5.8792,-5.881,-5.8824,-5.8822,-5.8605,0,0,0,0,0,-5.8741,-5.8769,-5.8749,-5.8808,-5.8811,-5.8783,-5.8795,-5.8768,-5.8768,-5.8769,-5.8756,-5.8758,-5.8781,-5.8796,-5.8815,-5.889,-5.8885,-5.8927,-5.8942,-5.8954,-5.8961,-5.8999,-5.9016,-5.8829,-5.8829,-5.8829,0,0,-5.8795,-5.8788,-5.8808,-5.8826,-5.8824,-5.8854,-5.8783,-5.8818,-5.884,-5.8774,-5.8821,-5.8814,-5.8813,-5.8877,-5.8904,-5.8873,-5.9013,-5.8964,-5.8974,-5.8974,-5.9009,-5.9026,-5.9042,-5.8835,-5.8834,-5.8833,0,0,-5.891,-5.8909,-5.8957,-5.8959,-5.8959,-5.8939,-5.8952,-5.8941,-5.8933,-5.8981,-5.8932,-5.8959,-5.8999,-5.9,-5.9006,-5.9128,-5.9087,-5.9136,-5.9209,-5.9247,-5.9261,-5.9274,-5.9314,-5.933,-5.9145,-5.9145,-5.9145,0,-5.8978,-5.9021,-5.8987,-5.9025,-5.9034,-5.898,-5.9028,-5.9032,-5.9038,-5.9045,-5.9012,-5.9061,-5.9057,-5.912,-5.915,-5.9158,-5.9169,-5.9133,-5.9263,-5.9275,-5.9286,-5.9324,-5.934,-5.915,-5.915,-5.9149,-5.9149,0,-5.9104,-5.9136,-5.9176,-5.9184,-5.9198,-5.9242,-5.9214,-5.9234,-5.9208,-5.9193,-5.9243,-5.9238,-5.9254,-5.9269,-5.9243,-5.9329,-5.9309,-5.927,-5.9207,-5.931,-5.9345,-5.9359,-5.9158,-5.9156,-5.9155,-5.9153,0,0,-5.9266,-5.9259,-5.9273,-5.9276,-5.9275,-5.9298,-5.9342,-5.9359,-5.9376,-5.9384,-5.9417,-5.9455,-5.9419,-5.9427,-5.9402,-5.9436,-5.9529,-5.9392,-5.9391,-5.9414,-5.9621,-5.9646,-5.9663,-5.9506,-5.9508,-5.9511,-5.9619,0,-5.9374,-5.9444,-5.9417,-5.949,-5.9518,-5.947,-5.9507,-5.9511,-5.95,-5.9522,-5.951,-5.9536,-5.9489,-5.9493,-5.9525,-5.9511,-5.9569,-5.9504,-5.9533,-5.9535,-5.9529,-5.9682,-5.9708,-5.9811,-5.9633,-5.9635,-5.9637,0,-5.9507,-5.9522,-5.9598,-5.9593,-5.9604,-5.9638,-5.9652,-5.9676,-5.968,-5.9669,-5.968,-5.9649,-5.969,-5.9633,-5.9689,-5.9645,-5.9657,-5.9653,-5.9656,-5.9653,-5.9587,-5.9678,-5.9843,-5.9856,-5.9659,-5.9657,-5.9655,0,-5.9613,-5.9653,-5.9703,-5.9708,-5.9705,-5.9729,-5.9729,-5.973,-5.9743,-5.9758,-5.9765,-5.9785,-5.9794,-5.981,-5.9784,-5.9746,-5.9844,-5.9785,-5.9834,-5.9834,-5.9851,-5.9849,-6.0015,-5.9868,-5.9868,-5.9868,-5.9867,0,-5.9732,-5.978,-5.975,-5.9781,-5.9833,-5.9804,-5.9856,-5.9851,-5.9853,-5.9881,-5.9843,-5.987,-5.9838,-5.9863,-5.9844,-5.9892,-5.9898,-5.9889,-5.9883,-5.9889,-5.989,-5.9892,-5.9882,-5.9872,-5.9871,-5.987,-5.9869,0,-5.9856,-5.9838,-5.989,-5.9885,-5.9885,-5.9923,-5.9918,-5.9946,-5.9935,-5.9972,-5.9979,-5.996,-5.9988,-5.9966,-5.9993,-5.9981,-6.0043,-6.0029,-6.0041,-6.0035,-6.0084,-6.0078,-6.0252,-6.0272,-6.0118,-6.0119,-6.012,0,-5.993,-5.9966,-5.9966,-5.9982,-5.9985,-6.0013,-6.0027,-6.0001,-6.0017,-6.0027,-6.0054,-6.0079,-6.0096,-6.0142,-6.0131,-6.0152,-6.0135,-6.0195,-6.0137,-6.0143,-6.013,-6.0126,-6.0128,-6.0204,-6.0206,-6.0207,-6.0209,0,-6.0063,-6.0054,-6.0076,-6.0096,-6.0115,-6.0129,-6.014,-6.0156,-6.013,-6.0151,-6.0179,-6.0193,-6.0222,-6.0246,-6.0264,-6.0263,-6.0231,-6.0229,-6.024,-6.0244,-6.0248,-6.0242,-6.0067,-6.0223,-6.0221,-6.022,-6.0219,-6.0219,-6.0161,-6.0191,-6.0195,-6.0222,-6.0229,-6.0241,-6.0267,-6.0261,-6.0284,-6.0305,-6.029,-6.0323,-6.0329,-6.0349,-6.0353,-6.0379,-6.0354,-6.0371,-6.0375,-6.0378,-6.0383,-6.0249,-6.0383,-6.0382,-6.0382,-6.0381,-6.0381,0,-6.0288,-6.029,-6.0316,-6.0333,-6.0355,-6.0327,-6.0339,-6.0358,-6.0388,-6.0397,-6.0416,-6.0449,-6.0474,-6.0467,-6.0489,-6.051,-6.0496,-6.0517,-6.0511,-6.0512,-6.0406,-6.0392,-6.0528,-6.0528,-6.0528,-6.0528,-6.0527,-6.0527,-6.0356,-6.0404,-6.0397,-6.0448,-6.045,-6.0483,-6.0492,-6.0503,-6.051,-6.0549,-6.057,-6.0566,-6.0568,-6.0591,-6.0612,-6.0609,-6.0617,-6.0642,-6.0633,-6.0534,-6.0519,-6.0505,-6.0491,-6.0645,-6.0645,-6.0736,-6.0736,-6.0737]},{"header":{"parameterUnit":"m.s-1","parameterCategory":1,"la1":30.2991,"la2":30.254,"lo1":-89.0895,"lo2":-89.0444,"dy":0.0017,"dx":0.0017,"nx":28,"ny":28,"refTime":"2024-08-29T21:00:00:Z","depth":0,"parameterNumber":3,"parameterNumberName":"V-component_of_WINDS"},"data":[0,0,0,0,0,0,0,0,0,0,0,0,0,0,0,0,0,0,0,0,0,0,0,0,0,0,0,0,0,0,0,0,0,0,0,0,0,0,0,0,0,0,0,0,0,0,0,0,0,0,0,0,0,0,0,0,0,0,4.0827,4.0828,0,4.0987,4.0989,4.0991,4.1,4.0998,4.0997,4.0995,4.1155,4.116,4.1166,0,0,0,0,0,0,0,0,0,0,0,0,0,4.0521,4.0527,4.0826,4.0828,4.083,4.0987,4.0989,4.0991,4.1001,4.0998,4.0996,4.0994,4.1153,4.116,4.1167,0,0,0,0,0,0,0,0,0,0,0,0,0,4.0665,4.0528,4.0826,4.0854,4.0858,4.0986,4.0989,4.0992,4.1001,4.0998,4.0996,4.0993,4.115,4.1159,4.1168,4.1278,0,0,4.1195,4.1199,0,0,0,0,0,0,0,0,4.0657,4.0676,4.0848,4.0852,4.0857,4.0971,4.094,4.1088,4.1002,4.0947,4.0995,4.0992,4.1095,4.1109,4.1145,4.1285,4.1292,4.1196,4.1201,4.1205,4.1208,0,0,0,0,0,0,0,4.0647,4.0669,4.089,4.085,4.0856,4.0856,4.0874,4.0968,4.1034,4.0951,4.0952,4.0972,4.1097,4.1136,4.1149,4.1294,4.1196,4.1204,4.1209,4.1213,4.1529,4.1532,0,0,0,0,0,0,4.0632,4.0661,4.0885,4.0895,4.0748,4.0864,4.0884,4.0937,4.1033,4.1045,4.0974,4.0971,4.1122,4.1138,4.1154,4.1287,4.1205,4.1213,4.1219,4.1526,4.153,4.1533,0,0,0,0,0,0,4.0625,4.0652,4.0878,4.0778,4.0807,4.0872,4.0932,4.0942,4.0981,4.105,4.1062,4.1002,4.1121,4.1142,4.1246,4.1293,4.1218,4.1226,4.1522,4.1527,4.1531,4.1554,0,0,0,0,0,0,4.0617,4.065,4.0694,4.0779,4.0812,4.097,4.0935,4.0947,4.0997,4.0995,4.1079,4.1091,4.112,4.1233,4.1255,4.1303,4.1233,4.1518,4.1524,4.153,4.155,4.1559,4.1567,0,0,0,0,0,4.0606,4.0694,4.0696,4.0723,4.0869,4.0973,4.0992,4.1025,4.1,4.1044,4.1088,4.1088,4.1284,4.1244,4.1269,4.132,4.1516,4.1523,4.1529,4.1546,4.1557,4.1567,0,0,0,0,0,0,4.0611,4.0705,4.0709,4.0828,4.0892,4.0974,4.1031,4.1037,4.1109,4.1104,4.1141,4.116,4.1263,4.1302,4.1256,4.143,4.1397,4.1409,4.14,4.1412,4.142,4.1408,4.124,0,0,0,0,0,4.0627,4.0705,4.0782,4.0879,4.0911,4.0965,4.1012,4.1032,4.1099,4.1126,4.1178,4.1242,4.1318,4.1367,4.1441,4.1555,4.1572,4.1603,4.1611,4.1618,4.1628,4.1688,4.1702,4.1555,4.1555,4.1555,0,0,4.0659,4.0719,4.0766,4.0881,4.0934,4.1011,4.0988,4.1072,4.1129,4.1139,4.1241,4.1281,4.1354,4.1463,4.1514,4.1499,4.1672,4.1627,4.1632,4.1638,4.1696,4.171,4.1722,4.156,4.1559,4.1558,0,0,4.0756,4.0811,4.0897,4.0949,4.1029,4.1064,4.1084,4.1165,4.1192,4.1296,4.1303,4.137,4.1501,4.1552,4.1596,4.1709,4.171,4.1732,4.1777,4.1835,4.1846,4.1857,4.1895,4.1908,4.1741,4.1742,4.1742,0,4.0786,4.0905,4.094,4.1023,4.1072,4.1084,4.117,4.1218,4.1317,4.135,4.1332,4.1494,4.1545,4.1665,4.1692,4.1728,4.1749,4.1722,4.1842,4.1853,4.1863,4.19,4.1914,4.1743,4.1743,4.1743,4.1743,0,4.0935,4.1017,4.1077,4.1172,4.1228,4.1312,4.1357,4.1408,4.1423,4.1458,4.1561,4.1622,4.1707,4.1737,4.1752,4.1858,4.1846,4.1835,4.1802,4.1879,4.1913,4.1928,4.1746,4.1746,4.1745,4.1744,0,0,4.1043,4.1155,4.1176,4.1218,4.1306,4.1369,4.1451,4.1535,4.1577,4.1644,4.1713,4.1822,4.1811,4.186,4.188,4.1931,4.2014,4.1914,4.1916,4.1928,4.2131,4.2138,4.2154,4.2015,4.2018,4.202,4.2124,0,4.1149,4.1298,4.133,4.1458,4.1533,4.1544,4.1615,4.1675,4.171,4.1776,4.1814,4.189,4.1871,4.19,4.1952,4.1993,4.2055,4.1986,4.2077,4.208,4.2057,4.2173,4.2181,4.2276,4.2138,4.2141,4.2142,0,4.1293,4.1364,4.1499,4.1573,4.1606,4.167,4.1748,4.1812,4.1878,4.19,4.1953,4.1967,4.205,4.2014,4.2127,4.2079,4.2118,4.2143,4.2148,4.2157,4.2115,4.2183,4.2308,4.2321,4.2165,4.2163,4.2161,0,4.1356,4.1484,4.1581,4.1617,4.1707,4.1751,4.179,4.1854,4.1901,4.1969,4.1999,4.2075,4.2116,4.2172,4.2205,4.2176,4.2315,4.2282,4.2333,4.2332,4.2361,4.2359,4.2492,4.2388,4.2388,4.2388,4.2387,0,4.147,4.1552,4.161,4.1669,4.176,4.1795,4.1883,4.1921,4.1977,4.2042,4.2056,4.2117,4.2157,4.2222,4.2248,4.2336,4.2355,4.2373,4.2378,4.2371,4.2369,4.2396,4.239,4.2392,4.2391,4.239,4.2389,0,4.1556,4.1598,4.1704,4.178,4.18,4.1863,4.1927,4.1984,4.2018,4.21,4.2121,4.2174,4.2251,4.2289,4.2385,4.2402,4.2501,4.2503,4.2479,4.2481,4.2529,4.2523,4.2684,4.2706,4.2588,4.2589,4.259,0,4.1626,4.1689,4.1771,4.1816,4.1856,4.1928,4.1976,4.2012,4.2061,4.2139,4.2185,4.2263,4.2328,4.2449,4.2495,4.2567,4.257,4.2621,4.2581,4.2571,4.2569,4.2564,4.257,4.2629,4.263,4.2631,4.2631,0,4.1745,4.1762,4.1832,4.1908,4.1964,4.2026,4.2086,4.2122,4.2166,4.222,4.2299,4.2349,4.2446,4.2522,4.2597,4.2634,4.2639,4.2643,4.2659,4.2652,4.2634,4.2642,4.2497,4.264,4.2639,4.2638,4.2638,4.2637,4.1824,4.1879,4.1945,4.2021,4.207,4.2125,4.2181,4.2221,4.2289,4.2371,4.2387,4.247,4.2531,4.2633,4.2673,4.2736,4.2725,4.2748,4.2753,4.2758,4.2759,4.2625,4.275,4.275,4.275,4.275,4.275,0,4.1942,4.1985,4.2054,4.2138,4.2196,4.2197,4.2262,4.2311,4.2385,4.2442,4.2504,4.2593,4.2666,4.2717,4.279,4.2831,4.2835,4.2849,4.2846,4.2854,4.2766,4.2745,4.2844,4.2844,4.2844,4.2844,4.2844,4.2844,4.2011,4.2104,4.2128,4.2244,4.2285,4.2368,4.2405,4.2454,4.25,4.2599,4.266,4.2693,4.2746,4.2823,4.2889,4.2901,4.2927,4.2941,4.2953,4.287,4.286,4.2851,4.2831,4.2946,4.2946,4.3035,4.3036,4.3036]}]]